| time (UTC) | temp F | wind direction | speed MPH | gust MPH | rain 1hr in | rain 24hr in | rain mn in | humidity % | barometer mb |
| 20260509075025 | 56 | 162 | 0.0 | 3.0 | 0.01 | 0.85 | 0.37 | 94 | 1007.4 |
| 20260509074555 | 56 | 206 | 3.0 | 4.0 | 0.01 | 0.85 | 0.37 | 94 | 1007.4 |
| 20260509074025 | 56 | 218 | 1.0 | 4.0 | 0.01 | 0.85 | 0.37 | 94 | 1007.3 |
| 20260509073525 | 56 | 206 | 0.0 | 3.0 | 0.00 | 0.84 | 0.36 | 94 | 1007.4 |
| 20260509073056 | 56 | 218 | 1.0 | 5.0 | 0.00 | 0.84 | 0.36 | 94 | 1007.4 |
| 20260509072525 | 56 | 216 | 3.0 | 5.0 | 0.00 | 0.84 | 0.36 | 94 | 1007.4 |
| 20260509072055 | 56 | 264 | 0.0 | 3.0 | 0.00 | 0.84 | 0.36 | 94 | 1007.6 |
| 20260509071555 | 56 | 189 | 1.0 | 2.0 | 0.00 | 0.84 | 0.36 | 94 | 1007.6 |
| 20260509071055 | 56 | 213 | 1.0 | 2.0 | 0.01 | 0.84 | 0.36 | 94 | 1007.8 |
| 20260509070555 | 56 | 193 | 1.0 | 2.0 | 0.01 | 0.84 | 0.36 | 94 | 1007.8 |
| 20260509070055 | 56 | 194 | 1.0 | 2.0 | 0.02 | 0.84 | 0.36 | 94 | 1007.7 |
| 20260509065555 | 56 | 194 | 0.0 | 2.0 | 0.04 | 0.84 | 0.36 | 94 | 1007.8 |
| 20260509065055 | 56 | 194 | 1.0 | 2.0 | 0.06 | 0.84 | 0.36 | 94 | 1007.9 |
| 20260509064555 | 56 | 194 | 1.0 | 2.0 | 0.08 | 0.84 | 0.36 | 94 | 1008.0 |
| 20260509064025 | 56 | 194 | 2.0 | 2.0 | 0.10 | 0.84 | 0.36 | 94 | 1008.2 |
| 20260509063025 | 56 | 194 | 1.0 | 2.0 | 0.13 | 0.84 | 0.36 | 94 | 1008.2 |
| 20260509062555 | 56 | 259 | 0.0 | 1.0 | 0.16 | 0.84 | 0.36 | 94 | 1008.2 |
| 20260509062055 | 56 | 259 | 0.0 | 3.0 | 0.18 | 0.84 | 0.36 | 94 | 1008.2 |
| 20260509061555 | 56 | 259 | 1.0 | 3.0 | 0.19 | 0.84 | 0.36 | 94 | 1008.2 |
| 20260509061055 | 56 | 231 | 3.0 | 4.0 | 0.18 | 0.83 | 0.35 | 94 | 1008.2 |
| 20260509060555 | 56 | 232 | 1.0 | 4.0 | 0.19 | 0.83 | 0.35 | 94 | 1008.3 |
| 20260509060056 | 56 | 218 | 2.0 | 4.0 | 0.20 | 0.82 | 0.34 | 94 | 1008.5 |
| 20260509054055 | 56 | 206 | 1.0 | 4.0 | 0.18 | 0.74 | 0.26 | 94 | 1009.1 |
| 20260509053025 | 56 | 221 | 2.0 | 4.0 | 0.18 | 0.71 | 0.23 | 94 | 1009.3 |
| 20260509052055 | 56 | 218 | 4.0 | 5.0 | 0.16 | 0.66 | 0.18 | 94 | 1009.3 |
| 20260509051555 | 56 | 189 | 1.0 | 4.0 | 0.16 | 0.65 | 0.17 | 94 | 1009.2 |
| 20260509050525 | 56 | 194 | 1.0 | 4.0 | 0.16 | 0.64 | 0.16 | 94 | 1009.1 |
| 20260509045555 | 56 | 192 | 2.0 | 3.0 | 0.14 | 0.61 | 0.13 | 94 | 1009.1 |
| 20260509045055 | 56 | 218 | 0.0 | 2.0 | 0.13 | 0.59 | 0.11 | 94 | 1009.0 |
| 20260509044026 | 56 | 158 | 0.0 | 2.0 | 0.14 | 0.56 | 0.08 | 94 | 1009.0 |
| 20260509043555 | 56 | 158 | 1.0 | 2.0 | 0.15 | 0.55 | 0.07 | 94 | 1008.9 |
| 20260509043055 | 56 | 158 | 1.0 | 3.0 | 0.14 | 0.53 | 0.05 | 94 | 1008.9 |
| 20260509042555 | 56 | 158 | 2.0 | 5.0 | 0.14 | 0.52 | 0.04 | 94 | 1008.9 |
| 20260509042055 | 56 | 176 | 2.0 | 5.0 | 0.13 | 0.50 | 0.02 | 94 | 1008.9 |
| 20260509041555 | 56 | 239 | 3.0 | 3.0 | 0.12 | 0.49 | 0.01 | 94 | 1009.0 |
| 20260509041055 | 56 | 203 | 2.0 | 3.0 | 0.12 | 0.49 | 0.01 | 94 | 1008.8 |
| 20260509040525 | 56 | 187 | 1.0 | 5.0 | 0.11 | 0.48 | 0.00 | 94 | 1008.9 |
| 20260509040056 | 56 | 180 | 1.0 | 5.0 | 0.11 | 0.48 | 0.00 | 93 | 1008.8 |
| 20260509035555 | 56 | 231 | 2.0 | 7.0 | 0.10 | 0.47 | 0.47 | 93 | 1008.8 |
| 20260509035025 | 56 | 167 | 3.0 | 7.0 | 0.09 | 0.46 | 0.46 | 93 | 1008.9 |
| 20260509034555 | 56 | 172 | 2.0 | 5.0 | 0.07 | 0.44 | 0.44 | 93 | 1009.2 |
| 20260509033555 | 56 | 183 | 2.0 | 4.0 | 0.04 | 0.40 | 0.40 | 93 | 1009.2 |
| 20260509033055 | 56 | 179 | 2.0 | 4.0 | 0.03 | 0.39 | 0.39 | 93 | 1009.2 |
| 20260509032555 | 56 | 180 | 1.0 | 4.0 | 0.03 | 0.38 | 0.38 | 93 | 1009.2 |
| 20260509032055 | 56 | 188 | 1.0 | 4.0 | 0.03 | 0.37 | 0.37 | 93 | 1009.1 |
| 20260509031555 | 56 | 165 | 1.0 | 5.0 | 0.04 | 0.37 | 0.37 | 93 | 1009.1 |
| 20260509030555 | 56 | 153 | 2.0 | 4.0 | 0.06 | 0.37 | 0.37 | 93 | 1009.0 |
| 20260509025555 | 56 | 177 | 2.0 | 4.0 | 0.08 | 0.37 | 0.37 | 93 | 1009.2 |
| 20260509024555 | 57 | 174 | 1.0 | 2.0 | 0.10 | 0.37 | 0.37 | 93 | 1009.4 |
| 20260509023555 | 57 | 171 | 1.0 | 2.0 | 0.11 | 0.36 | 0.36 | 93 | 1009.3 |
| 20260509023055 | 57 | 180 | 0.0 | 2.0 | 0.12 | 0.36 | 0.36 | 93 | 1009.3 |
| 20260509022555 | 57 | 180 | 0.0 | 2.0 | 0.11 | 0.35 | 0.35 | 93 | 1009.4 |
| 20260509022055 | 57 | 196 | 0.0 | 2.0 | 0.11 | 0.34 | 0.34 | 93 | 1009.5 |
| 20260509021055 | 57 | 243 | 1.0 | 5.0 | 0.09 | 0.32 | 0.32 | 93 | 1009.8 |
| 20260509020555 | 57 | 249 | 2.0 | 5.0 | 0.08 | 0.31 | 0.31 | 93 | 1009.7 |
| 20260509020055 | 57 | 210 | 2.0 | 4.0 | 0.07 | 0.30 | 0.30 | 93 | 1009.6 |
| 20260509015555 | 57 | 195 | 2.0 | 2.0 | 0.07 | 0.29 | 0.29 | 93 | 1009.5 |
| 20260509015055 | 57 | 200 | 0.0 | 4.0 | 0.06 | 0.28 | 0.28 | 93 | 1009.5 |
| 20260509014555 | 57 | 172 | 0.0 | 4.0 | 0.05 | 0.27 | 0.27 | 93 | 1009.4 |
| 20260509014054 | 57 | 164 | 1.0 | 4.0 | 0.04 | 0.26 | 0.26 | 93 | 1009.3 |
| 20260509013555 | 57 | 169 | 4.0 | 4.0 | 0.03 | 0.25 | 0.25 | 93 | 1009.3 |
| 20260509013055 | 57 | 179 | 1.0 | 3.0 | 0.02 | 0.24 | 0.24 | 93 | 1009.4 |
| 20260509012554 | 57 | 230 | 1.0 | 3.0 | 0.02 | 0.24 | 0.24 | 93 | 1009.4 |
| 20260509012055 | 57 | 218 | 1.0 | 2.0 | 0.01 | 0.23 | 0.23 | 92 | 1009.3 |
| 20260509011555 | 57 | 225 | 1.0 | 2.0 | 0.02 | 0.23 | 0.23 | 93 | 1009.3 |
| 20260509011055 | 57 | 222 | 0.0 | 3.0 | 0.02 | 0.23 | 0.23 | 93 | 1009.3 |
| 20260509010055 | 57 | 195 | 1.0 | 3.0 | 0.04 | 0.23 | 0.23 | 92 | 1009.2 |
| 20260509005525 | 57 | 237 | 0.0 | 2.0 | 0.04 | 0.22 | 0.22 | 92 | 1009.2 |
| 20260509005025 | 57 | 237 | 0.0 | 2.0 | 0.06 | 0.22 | 0.22 | 92 | 1009.1 |
| 20260509004554 | 57 | 237 | 0.0 | 2.0 | 0.07 | 0.22 | 0.22 | 92 | 1008.9 |
| 20260509004055 | 57 | 164 | 0.0 | 0.0 | 0.09 | 0.22 | 0.22 | 92 | 1008.9 |
| 20260509003555 | 57 | 164 | 0.0 | 0.0 | 0.10 | 0.22 | 0.22 | 92 | 1008.7 |
| 20260509003054 | 57 | 164 | 0.0 | 2.0 | 0.11 | 0.22 | 0.22 | 92 | 1008.9 |
| 20260509002554 | 57 | 164 | 0.0 | 2.0 | 0.12 | 0.22 | 0.22 | 92 | 1008.9 |
| 20260509002054 | 57 | 182 | 1.0 | 2.0 | 0.13 | 0.22 | 0.22 | 92 | 1008.8 |
| 20260509001555 | 57 | 182 | 0.0 | 2.0 | 0.12 | 0.21 | 0.21 | 92 | 1008.9 |
| 20260509001025 | 57 | 151 | 0.0 | 0.0 | 0.13 | 0.21 | 0.21 | 91 | 1009.1 |
| 20260509000556 | 57 | 151 | 0.0 | 1.0 | 0.13 | 0.20 | 0.20 | 91 | 1009.1 |
| 20260509000055 | 57 | 151 | 0.0 | 1.0 | 0.13 | 0.19 | 0.19 | 91 | 1009.2 |
| 20260508235555 | 57 | 145 | 0.0 | 1.0 | 0.12 | 0.18 | 0.18 | 91 | 1009.1 |
| 20260508235054 | 57 | 98 | 0.0 | 1.0 | 0.12 | 0.16 | 0.16 | 91 | 1009.1 |
| 20260508234555 | 57 | 116 | 0.0 | 0.0 | 0.12 | 0.15 | 0.15 | 91 | 1009.2 |
| 20260508234024 | 57 | 116 | 0.0 | 1.0 | 0.10 | 0.13 | 0.13 | 90 | 1008.9 |
| 20260508233054 | 57 | 116 | 0.0 | 4.0 | 0.09 | 0.11 | 0.11 | 90 | 1009.1 |
| 20260508232554 | 58 | 186 | 0.0 | 4.0 | 0.08 | 0.10 | 0.10 | 90 | 1009.2 |
| 20260508232055 | 58 | 15 | 0.0 | 2.0 | 0.07 | 0.09 | 0.09 | 90 | 1009.4 |
| 20260508231525 | 58 | 15 | 1.0 | 2.0 | 0.07 | 0.09 | 0.09 | 90 | 1009.3 |
| 20260508231025 | 58 | 15 | 0.0 | 2.0 | 0.07 | 0.08 | 0.08 | 90 | 1009.4 |
| 20260508230526 | 58 | 33 | 0.0 | 1.0 | 0.06 | 0.07 | 0.07 | 90 | 1009.4 |
| 20260508230025 | 58 | 33 | 0.0 | 0.0 | 0.06 | 0.06 | 0.06 | 89 | 1009.3 |
| 20260508225525 | 58 | 33 | 0.0 | 1.0 | 0.06 | 0.06 | 0.06 | 89 | 1009.1 |
| 20260508225054 | 58 | 33 | 0.0 | 1.0 | 0.04 | 0.04 | 0.04 | 88 | 1009.1 |
| 20260508224554 | 58 | 33 | 0.0 | 1.0 | 0.03 | 0.03 | 0.03 | 88 | 1009.3 |
| 20260508224024 | 58 | 33 | 0.0 | 3.0 | 0.03 | 0.03 | 0.03 | 87 | 1009.0 |
| 20260508223554 | 58 | 33 | 0.0 | 3.0 | 0.03 | 0.03 | 0.03 | 87 | 1008.9 |
| 20260508223054 | 59 | 6 | 0.0 | 2.0 | 0.02 | 0.02 | 0.02 | 86 | 1009.0 |
| 20260508222524 | 59 | 18 | 1.0 | 4.0 | 0.02 | 0.02 | 0.02 | 85 | 1009.0 |
| 20260508222055 | 59 | 356 | 2.0 | 4.0 | 0.02 | 0.02 | 0.02 | 84 | 1009.1 |
| 20260508221554 | 60 | 334 | 2.0 | 3.0 | 0.02 | 0.02 | 0.02 | 82 | 1009.1 |
| 20260508220554 | 61 | 265 | 1.0 | 1.0 | 0.01 | 0.01 | 0.01 | 79 | 1009.2 |
| 20260508215554 | 62 | 326 | 0.0 | 2.0 | 0.00 | 0.00 | 0.00 | 76 | 1009.0 |
| 20260508215054 | 62 | 237 | 0.0 | 1.0 | 0.00 | 0.00 | 0.00 | 74 | 1009.0 |
| 20260508214554 | 62 | 236 | 0.0 | 1.0 | 0.00 | 0.00 | 0.00 | 73 | 1008.8 |
| 20260508214054 | 63 | 236 | 0.0 | 0.0 | 0.00 | 0.00 | 0.00 | 72 | 1008.6 |
| 20260508213554 | 63 | 236 | 0.0 | 0.0 | 0.00 | 0.00 | 0.00 | 71 | 1008.6 |
| 20260508213054 | 63 | 236 | 0.0 | 3.0 | 0.00 | 0.00 | 0.00 | 70 | 1008.6 |
| 20260508212554 | 63 | 236 | 0.0 | 3.0 | 0.00 | 0.00 | 0.00 | 67 | 1008.6 |
| 20260508212025 | 63 | 214 | 1.0 | 5.0 | 0.00 | 0.00 | 0.00 | 66 | 1008.5 |
| 20260508211554 | 63 | 251 | 1.0 | 6.0 | 0.00 | 0.00 | 0.00 | 64 | 1008.6 |
| 20260508211055 | 64 | 235 | 2.0 | 6.0 | 0.00 | 0.00 | 0.00 | 62 | 1008.8 |
| 20260508210554 | 64 | 239 | 3.0 | 7.0 | 0.00 | 0.00 | 0.00 | 60 | 1008.9 |
| 20260508210054 | 65 | 210 | 3.0 | 9.0 | 0.00 | 0.00 | 0.00 | 60 | 1008.8 |
| 20260508205555 | 66 | 211 | 5.0 | 9.0 | 0.00 | 0.00 | 0.00 | 57 | 1008.8 |
| 20260508205055 | 66 | 212 | 4.0 | 6.0 | 0.00 | 0.00 | 0.00 | 56 | 1008.8 |
| 20260508204554 | 66 | 216 | 2.0 | 6.0 | 0.00 | 0.00 | 0.00 | 55 | 1008.8 |
| 20260508204055 | 67 | 251 | 2.0 | 8.0 | 0.00 | 0.00 | 0.00 | 53 | 1008.6 |
| 20260508203554 | 67 | 208 | 1.0 | 8.0 | 0.00 | 0.00 | 0.00 | 52 | 1008.6 |
| 20260508203054 | 67 | 186 | 2.0 | 5.0 | 0.00 | 0.00 | 0.00 | 52 | 1008.8 |
| 20260508202554 | 67 | 242 | 3.0 | 6.0 | 0.00 | 0.00 | 0.00 | 52 | 1008.8 |
| 20260508202054 | 67 | 207 | 4.0 | 6.0 | 0.00 | 0.00 | 0.00 | 51 | 1008.9 |
| 20260508200554 | 67 | 208 | 3.0 | 8.0 | 0.00 | 0.00 | 0.00 | 52 | 1009.0 |
| 20260508200054 | 67 | 167 | 3.0 | 8.0 | 0.00 | 0.00 | 0.00 | 51 | 1009.0 |
| 20260508195554 | 67 | 221 | 2.0 | 10.0 | 0.00 | 0.00 | 0.00 | 52 | 1009.1 |
| 20260508195054 | 67 | 213 | 2.0 | 10.0 | 0.00 | 0.00 | 0.00 | 52 | 1009.2 |
| 20260508194054 | 67 | 219 | 1.0 | 8.0 | 0.00 | 0.00 | 0.00 | 52 | 1009.5 |
| 20260508193024 | 67 | 260 | 1.0 | 8.0 | 0.00 | 0.00 | 0.00 | 52 | 1009.5 |
| 20260508191555 | 66 | 181 | 1.0 | 9.0 | 0.00 | 0.00 | 0.00 | 53 | 1009.8 |
| 20260508190555 | 66 | 221 | 1.0 | 7.0 | 0.00 | 0.00 | 0.00 | 55 | 1009.9 |
| 20260508190024 | 66 | 212 | 3.0 | 7.0 | 0.00 | 0.00 | 0.00 | 55 | 1010.0 |
| 20260508185554 | 66 | 242 | 3.0 | 7.0 | 0.00 | 0.00 | 0.00 | 55 | 1010.1 |
| 20260508185054 | 66 | 207 | 3.0 | 5.0 | 0.00 | 0.00 | 0.00 | 54 | 1010.2 |
| 20260508184554 | 66 | 228 | 1.0 | 4.0 | 0.00 | 0.00 | 0.00 | 55 | 1010.3 |
| 20260508183554 | 66 | 217 | 2.0 | 8.0 | 0.00 | 0.00 | 0.00 | 54 | 1010.4 |
| 20260508183054 | 66 | 260 | 6.0 | 7.0 | 0.00 | 0.00 | 0.00 | 54 | 1010.4 |
| 20260508181024 | 66 | 253 | 2.0 | 8.0 | 0.00 | 0.00 | 0.00 | 52 | 1010.7 |
| 20260508180554 | 67 | 238 | 6.0 | 8.0 | 0.00 | 0.00 | 0.00 | 51 | 1010.6 |
| 20260508180054 | 67 | 228 | 2.0 | 12.0 | 0.00 | 0.00 | 0.00 | 53 | 1010.8 |
| 20260508175054 | 67 | 176 | 1.0 | 9.0 | 0.00 | 0.00 | 0.00 | 51 | 1010.8 |
| 20260508174524 | 67 | 147 | 4.0 | 9.0 | 0.00 | 0.00 | 0.00 | 54 | 1010.9 |
| 20260508174054 | 67 | 222 | 5.0 | 11.0 | 0.00 | 0.00 | 0.00 | 53 | 1010.9 |
| 20260508173524 | 66 | 253 | 2.0 | 11.0 | 0.00 | 0.00 | 0.00 | 55 | 1011.0 |
| 20260508173054 | 65 | 235 | 11.0 | 11.0 | 0.00 | 0.00 | 0.00 | 53 | 1011.0 |
| 20260508172555 | 65 | 233 | 4.0 | 10.0 | 0.00 | 0.00 | 0.00 | 52 | 1011.1 |
| 20260508172054 | 65 | 226 | 3.0 | 13.0 | 0.00 | 0.00 | 0.00 | 52 | 1011.1 |
| 20260508171554 | 65 | 206 | 10.0 | 14.0 | 0.00 | 0.00 | 0.00 | 53 | 1011.2 |
| 20260508171054 | 65 | 224 | 12.0 | 14.0 | 0.00 | 0.00 | 0.00 | 52 | 1011.4 |
| 20260508170524 | 66 | 215 | 14.0 | 14.0 | 0.00 | 0.00 | 0.00 | 56 | 1011.5 |
| 20260508170054 | 65 | 255 | 3.0 | 11.0 | 0.00 | 0.00 | 0.00 | 53 | 1011.6 |
| 20260508164554 | 64 | 216 | 5.0 | 12.0 | 0.00 | 0.00 | 0.00 | 54 | 1011.8 |
| 20260508164054 | 64 | 166 | 6.0 | 9.0 | 0.00 | 0.00 | 0.00 | 53 | 1011.9 |
| 20260508163054 | 65 | 243 | 3.0 | 9.0 | 0.00 | 0.00 | 0.00 | 54 | 1012.2 |
| 20260508162553 | 65 | 208 | 6.0 | 10.0 | 0.00 | 0.00 | 0.00 | 54 | 1012.3 |
| 20260508162024 | 66 | 225 | 3.0 | 10.0 | 0.00 | 0.00 | 0.00 | 53 | 1012.3 |
| 20260508160553 | 64 | 230 | 2.0 | 8.0 | 0.00 | 0.00 | 0.00 | 57 | 1012.2 |
| 20260508160053 | 64 | 210 | 4.0 | 11.0 | 0.00 | 0.00 | 0.00 | 56 | 1012.3 |
| 20260508155553 | 63 | 261 | 7.0 | 11.0 | 0.00 | 0.00 | 0.00 | 57 | 1012.2 |
| 20260508155053 | 63 | 262 | 3.0 | 10.0 | 0.00 | 0.00 | 0.00 | 55 | 1012.3 |
| 20260508154553 | 63 | 257 | 4.0 | 12.0 | 0.00 | 0.00 | 0.00 | 56 | 1012.4 |
| 20260508153553 | 64 | 235 | 5.0 | 12.0 | 0.00 | 0.00 | 0.00 | 54 | 1012.5 |
| 20260508153053 | 64 | 209 | 4.0 | 12.0 | 0.00 | 0.00 | 0.00 | 55 | 1012.4 |
| 20260508152552 | 64 | 231 | 12.0 | 12.0 | 0.00 | 0.00 | 0.00 | 54 | 1012.4 |
| 20260508152052 | 64 | 247 | 5.0 | 15.0 | 0.00 | 0.00 | 0.00 | 54 | 1012.4 |
| 20260508151552 | 64 | 237 | 3.0 | 15.0 | 0.00 | 0.00 | 0.00 | 54 | 1012.5 |
| 20260508151052 | 64 | 193 | 6.0 | 10.0 | 0.00 | 0.00 | 0.00 | 56 | 1012.5 |
| 20260508150552 | 63 | 241 | 5.0 | 11.0 | 0.00 | 0.00 | 0.00 | 56 | 1012.3 |
| 20260508150052 | 63 | 239 | 9.0 | 16.0 | 0.00 | 0.00 | 0.00 | 55 | 1012.5 |
| 20260508145552 | 63 | 217 | 6.0 | 16.0 | 0.00 | 0.00 | 0.00 | 56 | 1012.6 |
| 20260508145052 | 63 | 251 | 2.0 | 12.0 | 0.00 | 0.00 | 0.00 | 57 | 1012.5 |
| 20260508144552 | 62 | 184 | 3.0 | 12.0 | 0.00 | 0.00 | 0.00 | 55 | 1012.6 |
| 20260508144053 | 63 | 208 | 2.0 | 7.0 | 0.00 | 0.00 | 0.00 | 56 | 1012.7 |
| 20260508143052 | 61 | 199 | 3.0 | 11.0 | 0.00 | 0.00 | 0.00 | 57 | 1012.8 |
| 20260508142552 | 61 | 247 | 7.0 | 11.0 | 0.00 | 0.00 | 0.00 | 56 | 1012.7 |
| 20260508142052 | 61 | 243 | 6.0 | 15.0 | 0.00 | 0.00 | 0.00 | 57 | 1012.9 |
| 20260508141052 | 60 | 245 | 4.0 | 12.0 | 0.00 | 0.00 | 0.00 | 57 | 1012.9 |
| 20260508140552 | 60 | 274 | 2.0 | 9.0 | 0.00 | 0.00 | 0.00 | 57 | 1012.8 |
| 20260508140052 | 60 | 213 | 4.0 | 8.0 | 0.00 | 0.00 | 0.00 | 58 | 1012.9 |
| 20260508135552 | 60 | 199 | 3.0 | 11.0 | 0.00 | 0.00 | 0.00 | 57 | 1013.0 |
| 20260508135052 | 60 | 216 | 4.0 | 11.0 | 0.00 | 0.00 | 0.00 | 57 | 1013.0 |
| 20260508134552 | 59 | 214 | 4.0 | 11.0 | 0.00 | 0.00 | 0.00 | 58 | 1012.9 |
| 20260508133552 | 59 | 277 | 2.0 | 5.0 | 0.00 | 0.00 | 0.00 | 58 | 1013.0 |
| 20260508132552 | 58 | 189 | 4.0 | 9.0 | 0.00 | 0.00 | 0.00 | 58 | 1013.1 |
| 20260508132052 | 58 | 200 | 9.0 | 9.0 | 0.00 | 0.00 | 0.00 | 58 | 1013.1 |
| 20260508131552 | 57 | 279 | 3.0 | 9.0 | 0.00 | 0.00 | 0.00 | 58 | 1013.1 |
| 20260508131052 | 57 | 254 | 4.0 | 8.0 | 0.00 | 0.00 | 0.00 | 59 | 1013.1 |
| 20260508130552 | 57 | 243 | 2.0 | 8.0 | 0.00 | 0.00 | 0.00 | 59 | 1013.1 |
| 20260508130052 | 56 | 216 | 5.0 | 9.0 | 0.00 | 0.00 | 0.00 | 59 | 1013.1 |
| 20260508125552 | 56 | 184 | 4.0 | 11.0 | 0.00 | 0.00 | 0.00 | 60 | 1013.1 |
| 20260508125052 | 55 | 256 | 9.0 | 11.0 | 0.00 | 0.00 | 0.00 | 60 | 1013.1 |
| 20260508122551 | 54 | 243 | 4.0 | 6.0 | 0.00 | 0.00 | 0.00 | 61 | 1013.2 |
| 20260508122051 | 53 | 237 | 1.0 | 4.0 | 0.00 | 0.00 | 0.00 | 64 | 1013.1 |
| 20260508121551 | 53 | 206 | 2.0 | 5.0 | 0.00 | 0.00 | 0.00 | 64 | 1013.1 |
| 20260508121051 | 53 | 227 | 2.0 | 5.0 | 0.00 | 0.00 | 0.00 | 64 | 1013.1 |
| 20260508120551 | 52 | 164 | 4.0 | 5.0 | 0.00 | 0.00 | 0.00 | 64 | 1013.0 |
| 20260508120051 | 52 | 212 | 2.0 | 5.0 | 0.00 | 0.00 | 0.00 | 64 | 1013.0 |
| 20260508115551 | 52 | 255 | 3.0 | 5.0 | 0.00 | 0.00 | 0.00 | 64 | 1013.1 |
| 20260508115051 | 51 | 228 | 2.0 | 5.0 | 0.00 | 0.00 | 0.00 | 65 | 1013.0 |
| 20260508114551 | 51 | 224 | 3.0 | 3.0 | 0.00 | 0.00 | 0.00 | 65 | 1013.0 |
| 20260508114051 | 51 | 255 | 2.0 | 4.0 | 0.00 | 0.00 | 0.00 | 65 | 1012.9 |
| 20260508113551 | 51 | 229 | 1.0 | 4.0 | 0.00 | 0.00 | 0.00 | 65 | 1012.8 |
| 20260508112551 | 50 | 230 | 1.0 | 4.0 | 0.00 | 0.00 | 0.00 | 65 | 1012.9 |
| 20260508111551 | 50 | 225 | 0.0 | 5.0 | 0.00 | 0.00 | 0.00 | 66 | 1012.9 |
| 20260508111051 | 50 | 228 | 0.0 | 4.0 | 0.00 | 0.00 | 0.00 | 66 | 1012.9 |
| 20260508110551 | 49 | 243 | 1.0 | 2.0 | 0.00 | 0.00 | 0.00 | 66 | 1012.8 |
| 20260508110051 | 50 | 243 | 1.0 | 2.0 | 0.00 | 0.00 | 0.00 | 66 | 1012.8 |
| 20260508105551 | 50 | 251 | 1.0 | 3.0 | 0.00 | 0.00 | 0.00 | 65 | 1012.8 |
| 20260508105051 | 50 | 239 | 1.0 | 3.0 | 0.00 | 0.00 | 0.00 | 65 | 1012.8 |
| 20260508104551 | 50 | 228 | 1.0 | 3.0 | 0.00 | 0.00 | 0.00 | 66 | 1012.7 |
| 20260508104051 | 50 | 214 | 1.0 | 2.0 | 0.00 | 0.00 | 0.00 | 65 | 1012.8 |
| 20260508103551 | 50 | 228 | 1.0 | 3.0 | 0.00 | 0.00 | 0.00 | 65 | 1012.8 |
| 20260508103050 | 50 | 236 | 2.0 | 3.0 | 0.00 | 0.00 | 0.00 | 65 | 1012.8 |
| 20260508102551 | 50 | 234 | 1.0 | 3.0 | 0.00 | 0.00 | 0.00 | 65 | 1012.7 |
| 20260508101550 | 50 | 229 | 0.0 | 2.0 | 0.00 | 0.00 | 0.00 | 65 | 1012.6 |
| 20260508101051 | 50 | 221 | 1.0 | 3.0 | 0.00 | 0.00 | 0.00 | 65 | 1012.6 |
| 20260508100551 | 50 | 222 | 2.0 | 3.0 | 0.00 | 0.00 | 0.00 | 64 | 1012.6 |
| 20260508100050 | 50 | 204 | 1.0 | 2.0 | 0.00 | 0.00 | 0.00 | 64 | 1012.6 |
| 20260508095050 | 51 | 231 | 0.0 | 3.0 | 0.00 | 0.00 | 0.00 | 65 | 1012.7 |
| 20260508094551 | 51 | 220 | 1.0 | 2.0 | 0.00 | 0.00 | 0.00 | 64 | 1012.7 |
| 20260508094050 | 51 | 203 | 1.0 | 2.0 | 0.00 | 0.00 | 0.00 | 65 | 1012.7 |
| 20260508093551 | 51 | 203 | 2.0 | 4.0 | 0.00 | 0.00 | 0.00 | 63 | 1012.8 |
| 20260508093050 | 52 | 220 | 1.0 | 4.0 | 0.00 | 0.00 | 0.00 | 63 | 1012.9 |
| 20260508092550 | 52 | 235 | 0.0 | 3.0 | 0.00 | 0.00 | 0.00 | 63 | 1012.9 |
| 20260508092050 | 52 | 226 | 0.0 | 4.0 | 0.00 | 0.00 | 0.00 | 63 | 1012.9 |
| 20260508091551 | 52 | 230 | 2.0 | 4.0 | 0.00 | 0.00 | 0.00 | 62 | 1012.9 |
| 20260508090550 | 52 | 226 | 0.0 | 2.0 | 0.00 | 0.00 | 0.00 | 63 | 1012.9 |
| 20260508090050 | 52 | 235 | 0.0 | 3.0 | 0.00 | 0.00 | 0.00 | 64 | 1013.0 |
| 20260508085550 | 52 | 214 | 1.0 | 3.0 | 0.00 | 0.00 | 0.00 | 65 | 1013.0 |
| 20260508084550 | 52 | 210 | 0.0 | 1.0 | 0.00 | 0.00 | 0.00 | 67 | 1013.1 |
| 20260508084050 | 52 | 210 | 0.0 | 1.0 | 0.00 | 0.00 | 0.00 | 68 | 1013.0 |
| 20260508083550 | 52 | 210 | 1.0 | 1.0 | 0.00 | 0.00 | 0.00 | 68 | 1013.0 |
| 20260508083050 | 52 | 210 | 0.0 | 1.0 | 0.00 | 0.00 | 0.00 | 70 | 1013.2 |
| 20260508081550 | 53 | 210 | 0.0 | 1.0 | 0.00 | 0.00 | 0.00 | 67 | 1013.4 |
| 20260508080550 | 53 | 203 | 0.0 | 1.0 | 0.00 | 0.00 | 0.00 | 67 | 1013.3 |
| 20260508080050 | 53 | 201 | 0.0 | 1.0 | 0.00 | 0.00 | 0.00 | 67 | 1013.4 |
| 20260508075550 | 53 | 201 | 0.0 | 1.0 | 0.00 | 0.00 | 0.00 | 65 | 1013.4 |
| 20260508075050 | 53 | 202 | 0.0 | 1.0 | 0.00 | 0.00 | 0.00 | 64 | 1013.3 |